Probability
0 0 0 0 0 0 0 0 0 0 0 0 0 0 0 0 0 0 0 0 0 0 0 0 0 0 0 0 0 0 0 0 0 0 0 0 0 0 0 0 0 0 0 0
0 0 0 0 0 0 0 0 0 0 0 0 0 0 0 0 0 0 0 0 0 0 0 0 0 0 0 0 0 0 0 0 0 0 0 0 0 0 0 0 0 0 0 0
0 0 0 0 0 0 0 0 0 0 0 0 0 0 0 0 0 0 0 0 0 0 0 0 0 0 0 0 0 0 0 0 0 0 0 0 0 0 0 0 0 0 0 0
0 0 0 0 0 0 0 0 0 0 0 0 0 0 0 0 0 0 0 0 0 0 0 0 0 0 0 0 0 0 0 0 0 0 0 0 0 0 0 0 0 0 0 0
0 0 0 0 0 0 0 0 0 0 0 0 0 0 0 0 0 0 0 0 0 0 0 0 0 0 0 0 0 0 0 0 0 0 0 0 0 0 0 0 0 0 0 0
0 0 0 0 0 0 0 0 0 0 0 0 0 0 0 0 0 0 0 0 0 0 0 0 0 0 0 0 0 0 0 0 0 0 0 0 0 0 0 0 0 0 0 0
0 0 0 0 0 0 0 0 0 0 0 0 0 0 0 0 0 0 0 0 0 0 0 0 0 0 0 0 0 0 0 0 0 0 0 0 0 0 0 0 0 0 0 0
0 0 0 0 0 0 0 0 0 0 0 0 0 0 0 0 0 0 0 0 0 0 0 0 0 0 0 0 0 0 0 0 0 0 0 0 0 0 0 0 0 0 0 0
0 0 0 0 0 0 0 0 0 0 0 0 0 0 0 0 0 0 0 0 0 0 0 0 0 0 0 0 0 0 0 0 0 0 0 0 0 0 0 0 0 0 0 0
0 0 0 0 0 0 0 0 0 0 0 0 0 0 0 0 0 0 0 0 0 0 0 0 0 0 0 0 0 0 0 0 0 0 0 0 0 0 0 0 0 0 0 0
0 0 0 0 0 0 0 0 0 0 0 0 0 0 0 0 0 0 0 0 0 0 0 0 0 0 0 0 0 0 0 0 0 0 0 0 0 0 0 0 0 0 0 0
0 0 0 0 0 0 0 0 0 0 0 0 0 0 0 0 0 0 0 0 0 0 0 0 0 0 0 0 0 0 0 0 0 0 0 0 0 0 0 0 0 0 0 0
0 0 0 0 0 0 0 0 0 0 0 0 0 0 0 0 0 0 0 0 0 0 0 0 0 0 0 0 0 0 0 0 0 0 0 0 0 0 0 0 0 0 0 0
0 0 0 0 0 0 0 0 0 0 0 0 0 0 0 0 0 0 0 0 0 0 0 0 0 0 0 0 0 0 0 0 0 0 0 0 0 0 0 0 0 0 0 0
0 0 0 0 0 0 0 0 0 0 0 0 0 0 0 0 0 0 0 0 0 0 0 0 0 0 0 0 0 0 0 0 0 0 0 0 0 0 0 0 0 0 0 0
0 0 0 0 0 0 0 0 0 0 0 0 0 0 0 0 0 0 0 0 0 0 0 0 0 0 0 0 0 0 0 0 0 0 0 0 0 0 0 0 0 0 0 0
0 0 0 0 0 0 0 0 0 0 0 0 0 0 0 0 0 0 0 0 0 0 0 0 0 0 0 0 0 0 0 0 0 0 0 0 0 0 0 0 0 0 0 0
0 0 0 0 0 0 0 0 0 0 0 0 0 0 0 0 0 0 0 0 0 0 0 0 0 0 0 0 0 0 0 0 0 0 0 0 0 0 0 0 0 0 0 0
0 0 0 0 0 0 0 0 0 0 0 0 0 0 0 0 0 0 0 0 0 0 0 0 0 0 0 0 0 0 0 0 0 0 0 0 0 0 0 0 0 0 0 0
0 0 0 0 0 0 0 0 0 0 0 0 0 0 0 0 0 0 0 0 0 0 0 0 0 0 0 0 0 0 0 0 0 0 0 0 0 0 0 0 0 0 0 0
0 0 0 0 0 0 0 0 0 0 0 0 0 0 0 0 0 0 0 0 0 0 0 0 0 0 0 0 0 0 0 0 0 0 0 0 0 0 0 0 0 0 0 0
0 0 0 0 0 0 0 0 0 0 0 0 0 0 0 0 0 0 0 0 0 0 0 0 0 0 0 0 0 0 0 0 0 0 0 0 0 0 0 0 0 0 0 0
0 0 0 0 0 0 0 0 0 0 0 0 0 0 0 0 0 0 0 0 0 0 0 0 0 0 0 0 0 0 0 0 0 0 0 0 0 0 0 0 0 0 0 0
0 0 0 0 0 0 0 0 0 0 0 0 0 0 0 0 0 0 0 0 0 0 0 0 0 0 0 0 0 0 0 0 0 0 0 0 0 0 0 0 0 0 0 0
0 0 0 0 0 0 0 0 0 0 0 0 0 0 0 0 0 0 0 0 0 0 0 0 0 0 0 0 0 0 0 0 0 0 0 0 0 0 0 0 0 0 0 0
0 0 0 0 0 0 0 0 0 0 0 0 0 0 0 0 0 0 0 0 0 0 0 0 0 0 0 0 0 0 0 0 0 0 0 0 0 0 0 0 0 0 0 0
0 0 0 0 0 0 0 0 0 0 0 0 0 0 0 0 0 0 0 0 0 0 0 0 0 0 0 0 0 0 0 0 0 0 0 0 0 0 0 0 0 0 0 0
Wind_Speed
2 1 3 5 7 10 12 11 10 8 10 11 8 6 5 5 6 7 7 8 9 8 7 6 6 5 5 4 4 4 4 4 4 3 4 4 5 5 5 6 6 6 6 6
1 0 3 4 7 10 13 12 13 12 16 9 7 5 5 6 8 9 10 10 9 8 9 8 8 7 6 5 4 4 4 4 4 4 4 4 5 5 5 6 6 6 7 6
2 2 2 7 10 12 8 8 9 16 16 5 6 8 9 9 10 12 12 11 11 11 10 9 8 7 7 6 5 5 5 4 4 4 5 5 5 5 5 5 5 6 6 6
1 1 7 8 2 6 8 9 10 10 9 8 11 10 8 8 10 11 10 10 10 9 8 7 7 7 6 6 6 5 5 5 5 5 5 5 5 5 5 4 4 4 5 5
2 2 8 8 3 4 6 7 7 12 14 10 6 4 6 7 9 10 9 8 7 8 8 8 9 8 8 7 6 6 5 5 5 5 5 5 5 4 4 4 3 3 3 4
3 2 6 5 3 2 3 5 4 5 9 7 3 4 7 5 6 6 5 6 7 8 8 9 9 9 8 7 7 6 6 5 5 5 5 5 5 4 3 3 3 3 2 2
4 4 7 7 3 2 1 5 5 4 6 5 7 7 3 1 3 4 5 6 8 9 8 9 9 9 8 7 7 6 6 5 5 5 5 5 4 3 3 3 2 1 1 1
5 5 8 3 2 3 5 5 5 5 4 3 4 2 0 2 3 5 5 6 7 8 7 7 9 9 8 7 6 6 6 6 5 5 4 4 4 3 3 3 2 1 1 2
7 7 4 1 2 3 3 4 5 4 4 1 1 1 1 2 3 4 5 6 6 7 7 7 8 8 8 7 7 7 6 6 5 5 4 4 4 4 3 3 3 2 2 2
4 6 5 4 2 3 3 4 5 4 3 1 1 1 2 3 3 4 5 5 6 7 7 7 8 7 7 7 8 8 7 6 6 6 5 4 4 4 4 4 4 3 3 3
5 5 7 5 4 5 6 6 5 5 3 2 1 2 3 3 4 4 4 5 6 7 8 8 8 8 7 8 9 8 7 7 6 6 5 5 5 5 5 5 5 5 4 3
4 3 4 8 7 7 6 6 6 5 5 3 2 2 2 3 3 4 5 5 6 7 7 7 8 9 9 9 10 9 8 8 6 6 5 5 4 4 8 8 9 10 8 6
6 7 8 10 9 6 6 6 6 5 4 4 2 1 2 2 2 3 4 5 7 8 7 7 8 9 9 10 11 11 9 8 7 6 6 6 5 5 4 5 8 9 9 10
6 6 7 6 7 8 7 6 4 3 3 2 1 1 0 0 1 2 3 4 5 5 6 6 8 9 9 10 11 11 10 10 9 7 7 6 6 6 5 4 3 4 6 9
7 7 9 9 8 7 5 4 3 3 3 2 2 1 1 1 1 2 2 2 2 3 4 5 7 7 7 10 11 11 9 7 7 6 6 6 6 6 5 5 5 4 3 4
12 10 8 7 8 7 5 4 4 4 2 2 2 2 2 1 2 2 2 1 2 3 4 4 6 5 6 9 9 8 8 11 10 7 6 6 6 6 6 6 5 5 5 4
10 9 8 9 8 7 5 4 3 3 2 2 3 3 2 2 2 2 3 3 2 2 2 3 4 3 4 6 8 6 6 7 12 8 7 7 7 7 6 6 6 5 5 5
9 9 9 8 7 6 5 4 3 3 3 3 3 2 2 2 2 3 4 3 2 2 2 3 3 2 3 4 5 4 5 5 6 7 6 6 6 6 6 6 6 6 4 5
8 8 8 7 6 5 4 4 4 4 4 3 3 2 2 2 3 3 3 2 2 3 4 4 5 1 2 3 4 3 4 5 5 5 6 8 7 6 6 6 6 6 5 4
7 7 7 6 6 5 5 5 4 4 4 4 3 3 3 3 4 3 2 1 1 2 4 5 3 2 2 2 3 3 4 5 5 5 5 6 6 6 6 6 6 5 5 5
6 5 5 5 5 5 5 5 4 4 5 4 4 3 3 4 4 3 2 2 3 5 5 5 3 2 2 2 3 2 3 4 4 5 5 5 6 6 5 6 5 5 5 5
5 4 4 4 4 5 4 4 4 4 4 4 4 4 4 4 4 3 2 2 4 8 5 3 3 3 3 2 1 2 3 3 4 4 4 5 5 5 5 5 5 5 5 5
5 5 5 4 4 4 4 3 3 3 3 3 4 4 3 3 3 3 3 3 4 8 5 3 5 7 6 2 1 2 3 4 4 4 4 4 5 5 5 5 5 5 5 5
5 5 5 4 4 4 5 4 3 3 3 3 3 3 3 3 2 1 2 7 9 8 4 5 8 7 5 1 1 2 3 3 3 3 4 4 4 4 4 4 4 4 4 5
5 5 5 5 4 4 4 4 4 3 3 3 3 2 2 1 2 3 3 4 8 7 4 6 8 7 3 1 2 2 2 3 3 3 4 4 4 4 4 4 4 4 4 5
5 5 5 5 5 4 3 3 3 3 3 3 3 2 2 2 2 3 3 4 5 6 4 3 4 5 3 2 2 2 2 3 3 3 3 3 4 4 4 4 5 4 4 5
6 5 4 5 4 4 4 4 4 4 3 3 3 2 2 2 2 2 3 3 3 3 3 3 3 3 3 3 3 3 2 2 3 3 3 3 3 4 4 5 4 4 4 4
Wind_Direction
225 203 163 200 205 199 210 220 229 239 237 248 259 264 250 218 196 185 187 188 188 185 178 171 166 164 161 155 147 137 131 125 117 111 103 97 88 79 73 68 66 61 62 61
338 274 204 241 230 217 225 231 239 254 261 245 249 250 240 215 198 200 204 202 195 185 179 180 177 171 165 161 154 144 140 136 132 126 117 108 100 92 82 74 67 63 60 59
283 324 359 265 229 210 210 212 209 237 250 242 242 239 231 218 207 210 209 203 195 192 188 183 177 168 167 161 152 149 147 142 142 137 123 113 108 98 91 82 73 66 57 57
156 95 242 245 248 202 218 241 227 243 259 241 236 242 237 215 208 215 210 201 196 184 175 166 160 157 153 151 152 151 149 148 147 141 129 121 111 103 96 86 79 73 60 52
148 240 279 294 276 193 199 266 235 239 257 260 254 268 267 229 211 214 208 196 184 170 158 153 156 154 150 153 155 156 157 154 152 145 138 131 122 114 104 98 88 78 66 53
165 231 258 263 285 192 147 287 277 239 258 262 194 229 257 225 202 199 177 159 149 142 141 152 156 153 155 161 164 167 163 155 148 144 142 137 133 124 111 113 113 99 71 49
190 238 268 263 277 137 186 270 303 282 268 246 209 223 260 170 152 148 138 135 138 144 151 158 156 156 162 168 175 164 150 147 146 145 144 139 135 129 128 128 122 107 69 354
182 214 255 276 128 179 245 285 302 300 290 259 236 242 80 101 114 122 124 130 141 146 149 152 158 162 169 177 164 149 149 152 153 152 154 148 148 148 150 154 161 190 243 285
201 221 244 293 240 280 294 299 306 309 313 289 221 199 137 130 134 139 142 145 146 148 150 159 169 171 177 174 157 155 158 162 162 161 162 159 167 173 176 183 194 214 222 241
270 275 290 290 304 334 327 304 306 312 310 288 246 190 157 150 154 157 159 161 157 157 167 179 183 185 180 164 163 165 172 175 172 175 178 179 185 188 191 195 203 216 221 231
274 301 326 324 337 330 327 329 330 330 318 293 249 215 187 178 179 179 175 173 175 183 189 190 185 191 182 170 168 176 181 185 186 189 188 193 202 206 204 208 199 202 211 211
274 311 299 294 310 317 314 314 315 314 312 310 272 238 207 197 189 183 184 180 187 197 201 195 189 194 188 181 179 181 188 193 194 192 193 196 202 224 236 227 231 231 218 207
277 295 283 282 296 302 296 295 300 294 285 287 294 261 216 204 192 187 190 194 203 207 206 199 196 199 193 186 186 191 196 194 193 194 195 196 198 204 224 238 240 240 236 233
292 304 295 298 302 306 299 294 296 304 315 308 309 340 1 188 179 201 220 222 218 214 210 204 205 209 195 187 191 199 200 198 195 196 195 196 199 202 201 205 221 242 244 244
313 306 290 295 298 300 301 304 312 311 321 340 359 12 15 334 290 284 281 261 226 220 221 213 217 218 191 189 195 201 200 199 196 194 195 198 197 197 201 208 216 222 225 248
313 306 298 300 303 308 312 314 308 303 312 327 343 343 342 331 319 319 324 302 232 239 238 229 233 226 194 193 197 202 205 203 192 192 193 196 196 199 204 209 216 219 224 224
313 314 316 313 311 311 312 314 311 315 327 336 333 333 343 350 346 343 336 324 283 265 262 250 255 244 206 198 196 199 199 200 198 196 199 199 199 203 205 206 213 220 225 220
312 312 314 312 309 311 319 332 340 341 336 330 337 353 359 352 333 325 323 326 330 328 324 297 280 253 218 205 198 194 192 194 194 199 200 202 203 202 201 206 214 222 226 230
331 331 336 342 342 338 337 343 347 350 351 351 351 354 355 347 336 328 330 347 353 333 328 323 317 286 241 223 199 189 189 192 197 201 199 208 208 203 203 209 214 218 218 217
333 335 340 344 352 352 347 346 348 353 355 355 356 4 6 357 349 342 346 9 359 311 311 321 327 312 274 243 205 191 194 198 203 204 202 206 207 206 207 211 214 217 219 222
322 327 335 339 343 348 346 343 346 349 351 355 360 357 351 346 348 349 356 357 349 337 332 337 338 312 280 259 215 199 202 206 209 208 208 210 211 209 208 211 215 218 221 226
310 311 316 323 329 330 333 335 336 340 346 349 355 355 351 350 352 351 1 351 331 335 339 330 319 308 299 275 211 206 212 214 216 213 213 213 213 212 212 213 217 221 224 226
295 292 293 297 302 306 310 319 325 329 332 333 338 342 340 335 336 339 333 335 327 330 334 318 320 318 311 283 219 218 221 222 221 220 218 216 216 215 215 217 220 223 226 229
286 283 281 284 290 295 300 305 311 307 302 302 310 320 324 327 325 317 303 318 329 332 329 323 329 325 321 295 237 232 233 232 228 225 222 220 218 217 217 220 224 225 229 233
281 279 275 275 276 274 276 286 295 292 294 294 299 304 304 290 290 304 310 315 328 337 332 334 338 337 337 300 263 251 247 242 238 230 223 223 222 221 221 223 227 231 233 234
279 277 271 261 258 260 260 261 267 274 280 288 293 284 289 293 295 302 311 319 329 340 340 330 333 338 334 317 293 273 263 268 269 250 232 230 229 228 229 231 234 234 236 238
278 274 272 272 263 249 243 242 249 258 255 260 273 274 279 290 298 308 315 320 327 330 328 329 330 331 327 318 307 293 279 270 266 260 249 240 237 236 236 237 237 237 238 240